Weather History for KBHM - July, 2013

Change the Weather History Date:

Saturday, July 20, 2013

  Actual Average Record
Temperature  
Mean Temperature 81 °F 81 °F  
Max Temperature 88 °F 91 °F 100 °F (1952)
Min Temperature 73 °F 72 °F 59 °F (2009)
Cooling Degree Days 16 16  
Month to date cooling degree days 273 317  
Year to date cooling degree days 959 981  
Since 1 June cooling degree days 694 699  
Growing Degree Days 30 (Base 50)    
Moisture  
Dew Point 71 °F    
Average Humidity 73    
Maximum Humidity 93    
Minimum Humidity 53    
Precipitation  
Precipitation 0.33 in 0.16 in 1.43 in (1907)
Month to date precipitation 2.78 3.16  
Year to date precipitation 41.95 31.51  
Sea Level Pressure  
Sea Level Pressure 30.00 in    
Wind  
Wind Speed 4 mph (WSW)    
Max Wind Speed 17 mph    
Max Gust Speed 20 mph    
Visibility 10 miles    
Events Rain , Thunderstorm    
T = Trace of Precipitation, MM = Missing Value Source: NWS Daily Summary

Daily Weather History Graph

Daily Weather History Graph

Search for Another Location

Airport or City:

Trip Planner

Search our weather history database for the weather conditions in past years. The results will help you decide how hot, cold, wet, or windy it might be!

Date:

Astronomy

Jul. 20, 2013 Rise Set
Actual Time 5:51 AM CDT 7:55 PM CDT
Civil Twilight 5:23 AM CDT 8:23 PM CDT
Nautical Twilight 4:49 AM CDT 8:57 PM CDT
Astronomical Twilight 4:12 AM CDT 9:33 PM CDT
Moon 5:58 PM CDT (7/20) 3:30 AM CDT (7/20)
Length of Visible Light 14h 59m
Length of Day
14h 03m
Waxing Gibbous, 94% of the Moon is Illuminated
Jul 20
Waxing Gibbous
Jul 22
Full
Jul 29
Last Quarter
Aug 6
New
Aug 14
First Quarter

Hourly Weather History & Observations

Time (CDT) Temp. Heat Index Dew Point Humidity Pressure Visibility Wind Dir Wind Speed Gust Speed Precip Events Conditions
12:53 AM 81.0 °F 84.4 °F 70.0 °F 69% 30.04 in 10.0 mi SW 8.1 mph - N/A   Mostly Cloudy
1:53 AM 79.0 °F - 70.0 °F 74% 30.02 in 10.0 mi SW 5.8 mph - N/A   Clear
2:53 AM 77.0 °F - 70.0 °F 79% 30.01 in 10.0 mi WSW 4.6 mph - N/A   Clear
3:53 AM 75.0 °F - 70.0 °F 84% 30.01 in 10.0 mi Calm Calm - N/A   Clear
4:53 AM 73.9 °F - 71.1 °F 91% 30.01 in 10.0 mi Calm Calm - N/A   Clear
5:53 AM 73.9 °F - 70.0 °F 87% 30.02 in 10.0 mi Calm Calm - N/A   Clear
6:53 AM 75.0 °F - 71.1 °F 87% 30.03 in 10.0 mi Calm Calm - N/A   Clear
7:53 AM 79.0 °F - 71.1 °F 77% 30.04 in 10.0 mi Calm Calm - N/A   Clear
8:53 AM 81.0 °F 84.9 °F 71.1 °F 72% 30.04 in 10.0 mi West 5.8 mph - N/A   Scattered Clouds
9:53 AM 82.9 °F 87.0 °F 70.0 °F 65% 30.04 in 10.0 mi South 5.8 mph - N/A   Mostly Cloudy
10:53 AM 82.9 °F 87.0 °F 70.0 °F 65% 30.04 in 10.0 mi South 5.8 mph - N/A   Mostly Cloudy
11:53 AM 84.9 °F 89.4 °F 70.0 °F 61% 30.03 in 10.0 mi South 4.6 mph - N/A   Scattered Clouds
12:53 PM 88.0 °F 92.1 °F 69.1 °F 53% 30.01 in 10.0 mi SSE 5.8 mph - N/A   Mostly Cloudy
1:53 PM 87.1 °F 90.6 °F 68.0 °F 53% 29.99 in 10.0 mi West 6.9 mph - N/A   Overcast
2:53 PM 82.0 °F 86.3 °F 71.1 °F 69% 29.97 in 10.0 mi WNW 15.0 mph - N/A   Overcast
3:02 PM 82.4 °F 87.2 °F 71.6 °F 70% 30.00 in 10.0 mi NW 13.8 mph - N/A Thunderstorm Thunderstorm
3:53 PM 82.0 °F 85.5 °F 69.1 °F 65% 29.95 in 10.0 mi NNW 9.2 mph - N/A Thunderstorm Thunderstorm
4:06 PM 80.6 °F 83.2 °F 68.0 °F 65% 29.98 in 10.0 mi NNW 8.1 mph - N/A   Scattered Clouds
4:45 PM 77.0 °F - 71.6 °F 83% 29.99 in 7.0 mi NNW 8.1 mph - 0.31 in Rain Light Rain
4:53 PM 77.0 °F - 72.0 °F 84% 29.97 in 7.0 mi NNW 8.1 mph - 0.33 in Rain Light Rain
5:53 PM 79.0 °F - 72.0 °F 79% 29.95 in 10.0 mi Calm Calm - 0.00 in   Scattered Clouds
6:53 PM 77.0 °F - 71.1 °F 82% 29.94 in 10.0 mi SE 4.6 mph - N/A   Clear
7:53 PM 78.1 °F - 71.1 °F 79% 29.96 in 10.0 mi Calm Calm - N/A   Clear
8:53 PM 77.0 °F - 72.0 °F 84% 30.00 in 10.0 mi SE 3.5 mph - N/A   Clear
9:53 PM 77.0 °F - 73.0 °F 88% 30.01 in 10.0 mi Calm Calm - N/A   Partly Cloudy
10:53 PM 77.0 °F - 72.0 °F 84% 30.02 in 10.0 mi Calm Calm - N/A   Clear
11:53 PM 75.9 °F - 72.0 °F 87% 30.01 in 10.0 mi Calm Calm - N/A   Clear